Tracking 25709 objects as of 23-May-2022
HD Live streaming from Space Station
objects crossing your sky now

STARLINK-3391

Track STARLINK-3391 now!
10-day predictions
STARLINK-3391 is classified as:


NORAD ID: 51117
Int'l Code: 2022-005P
Perigee: 545.7 km
Apogee: 548.1 km
Inclination: 53.2 °
Period: 95.4 minutes
Semi major axis: 6917 km
RCS: Unknown
Launch date: January 19, 2022
Source: United States (US)
Launch site: AIR FORCE EASTERN TEST RANGE (AFETR)
aabbcc
Your satellite tracking list
Your tracking list is empty




NASA's NSSDC Master Catalog

Two Line Element Set (TLE):
1 51117U 22005P   22142.91668981  .00002878  00000-0  19890-3 0  9998
2 51117  53.2145  34.5868 0001767  57.8377 229.8706 15.08826036  1306
Source of the keplerian elements: AFSPC